Location: Barnston
(51.8500°N, 0.4000°E)
Time: 13:03:23
(UTC+00:00)

Cosmos 2026 Rocket - Pass Details

Date: 26 September 2023
Orbit: 940 x 999 km, 82.9° (Epoch: 10 December)

Event Time Altitude Azimuth Distance (km) Brightness Sun altitude
Exits shadow 02:42:07 78° 233° (SW) 987 3.8 -27.8°
Maximum altitude 02:42:28 82° 280° (W) 976 3.8 -27.8°
Drops below altitude 10° 02:48:38 10° 9° (N) 2,686 6.9 -27.0°
Sets 02:51:07 0° 10° (N) 3,630 7.7 -26.7°
